Location: Newark
(27.9675°N, 86.8869°E)
Time: 18:45:13
(UTC+00:00)

Altair - Pass Details

Date: 27 October 2019
Orbit: 1502 x 1682 km, 47.2° (Epoch: 20 November)

Event Time Altitude Azimuth Distance (km) Brightness Sun altitude
Rises 03:30:37 0° 251° (WSW) 4,645 9.8 36.2°
Reaches altitude 10° 03:33:48 10° 258° (WSW) 3,679 9.3 36.7°
Maximum altitude 03:42:36 46° 329° (NNW) 1,996 8.1 38.0°
Drops below altitude 10° 03:51:46 10° 41° (NE) 3,810 9.6 39.4°
Sets 03:55:09 0° 47° (NE) 4,823 10.1 39.9°
